Change the Weather History Date:

Tuesday, August 19, 2014

  Actual Average (KMGW) Record (KMGW)
Temperature  
Mean Temperature 68 °F 72 °F  
Max Temperature 73 °F 82 °F 92 °F (1968)
Min Temperature 62 °F 62 °F 46 °F (1953)
Degree Days  
Heating Degree Days 0 0  
Month to date heating degree days 0  
Since 1 June heating degree days 34  
Since 1 July heating degree days 3  
Cooling Degree Days 2 7  
Month to date cooling degree days 147  
Year to date cooling degree days 631  
Since 1 June cooling degree days 564  
Growing Degree Days 18 (Base 50)    
Moisture  
Dew Point 69 °F    
Average Humidity 93    
Maximum Humidity 100    
Minimum Humidity 78    
Precipitation  
Precipitation 0.00 in 0.11 in 1.59 in (2004)
Month to date precipitation 2.23  
Year to date precipitation 28.15  
Sea Level Pressure  
Sea Level Pressure 29.96 in    
Wind  
Wind Speed 5 mph (SE)    
Max Wind Speed 8 mph    
Max Gust Speed -    
Visibility 5 miles    
Events Fog    
T = Trace of Precipitation, MM = Missing Value Source: NWS Daily Summary

Daily Weather History Graph

Daily Weather History Graph

Search for Another Location

Airport or City:

Trip Planner

Search our weather history database for the weather conditions in past years. The results will help you decide how hot, cold, wet, or windy it might be!

Date:

Astronomy

Aug. 19, 2014 Rise Set
Actual Time 6:33 AM EDT 8:07 PM EDT
Civil Twilight 6:04 AM EDT 8:36 PM EDT
Nautical Twilight 5:30 AM EDT 9:10 PM EDT
Astronomical Twilight 4:54 AM EDT 9:46 PM EDT
Moon 1:24 AM EDT 4:02 PM EDT
Length of Visible Light 14h 31m
Length of Day
13h 34m
Waning Crescent, 29% of the Moon is Illuminated
Aug 19
Waning Crescent
Aug 25
New
Sep 2
First Quarter
Sep 8
Full
Sep 15
Last Quarter

Hourly Weather History & Observations

Time (EDT) Temp. Dew Point Humidity Pressure Visibility Wind Dir Wind Speed Gust Speed Precip Events Conditions
12:10 AM 64.4 °F - N/A% 29.93 in 7.0 mi ESE 6.9 mph - N/A   Overcast
12:30 AM 62.6 °F - N/A% 29.93 in 5.0 mi SE 5.8 mph - N/A   Haze
1:10 AM 62.6 °F - N/A% 29.93 in 4.0 mi SE 5.8 mph - N/A   Haze
1:30 AM 62.6 °F - N/A% 29.93 in 3.0 mi SE 4.6 mph - N/A   Overcast
1:50 AM 62.6 °F - N/A% 29.93 in 2.5 mi SE 4.6 mph - N/A   Overcast
2:10 AM 62.6 °F - N/A% 29.92 in 2.0 mi SE 5.8 mph - N/A   Overcast
2:30 AM 62.6 °F - N/A% 29.92 in 2.0 mi SE 6.9 mph - N/A   Overcast
2:50 AM 62.6 °F - N/A% 29.92 in 2.0 mi SE 8.1 mph - N/A   Overcast
3:10 AM 62.6 °F - N/A% 29.91 in 1.8 mi SE 8.1 mph - N/A   Overcast
3:30 AM 62.6 °F - N/A% 29.91 in 0.5 mi SE 8.1 mph - N/A Fog Fog
3:50 AM 62.6 °F - N/A% 29.92 in 0.5 mi SE 4.6 mph - N/A Fog Fog
4:10 AM 62.6 °F - N/A% 29.92 in 0.2 mi ESE 6.9 mph - N/A Fog Fog
4:30 AM 62.6 °F - N/A% 29.92 in 0.2 mi SE 6.9 mph - N/A Fog Fog
4:50 AM 62.6 °F - N/A% 29.92 in 0.2 mi SE 6.9 mph - N/A Fog Fog
5:10 AM 62.6 °F - N/A% 29.92 in 0.2 mi SE 5.8 mph - N/A Fog Fog
5:30 AM 62.6 °F - N/A% 29.92 in 0.2 mi SE 6.9 mph - N/A Fog Fog
5:50 AM 62.6 °F - N/A% 29.92 in 0.2 mi SE 6.9 mph - N/A Fog Fog
6:10 AM 62.6 °F - N/A% 29.92 in 0.2 mi SE 5.8 mph - N/A Fog Fog
6:30 AM 62.6 °F - N/A% 29.92 in 0.2 mi SSE 5.8 mph - N/A Fog Fog
6:50 AM 62.6 °F - N/A% 29.93 in 0.2 mi SSE 6.9 mph - N/A Fog Fog
7:10 AM 62.6 °F - N/A% 29.93 in 0.2 mi SSE 4.6 mph - N/A Fog Fog
7:30 AM 62.6 °F - N/A% 29.93 in 0.2 mi SE 3.5 mph - N/A Fog Fog
7:50 AM 62.6 °F - N/A% 29.95 in 0.2 mi SSE 3.5 mph - N/A Fog Fog
8:10 AM 62.6 °F - N/A% 29.95 in 0.2 mi SSE 4.6 mph - N/A Fog Fog
8:30 AM 62.6 °F - N/A% 29.96 in 0.8 mi SSE 5.8 mph - N/A   Overcast
8:50 AM 62.6 °F - N/A% 29.96 in 2.0 mi SSE 8.1 mph - N/A   Overcast
9:10 AM 64.4 °F - N/A% 29.96 in 2.5 mi SSE 8.1 mph - N/A   Overcast
9:30 AM 64.4 °F - N/A% 29.96 in 2.5 mi SSE 6.9 mph - N/A   Overcast
9:50 AM 64.4 °F - N/A% 29.96 in 3.0 mi SSE 5.8 mph - N/A   Overcast
10:10 AM 68.0 °F - N/A% 29.97 in 4.0 mi South 4.6 mph - N/A   Haze
10:30 AM 68.0 °F - N/A% 29.97 in 5.0 mi South 5.8 mph - N/A   Haze
10:50 AM 68.0 °F - N/A% 29.97 in 7.0 mi South 4.6 mph - N/A   Overcast
11:10 AM 69.8 °F - N/A% 29.98 in 7.0 mi SSE 5.8 mph - N/A   Overcast
11:30 AM 69.8 °F - N/A% 29.97 in 10.0 mi SSE 4.6 mph - N/A   Overcast
11:50 AM 69.8 °F 68.0 °F 94% 29.97 in 10.0 mi Calm Calm - N/A   Overcast
12:10 PM 68.0 °F 68.0 °F 100% 29.97 in 4.0 mi Calm Calm - N/A   Mostly Cloudy
12:30 PM 66.2 °F - N/A% 29.98 in 5.0 mi Calm Calm - N/A   Haze
12:50 PM 68.0 °F - N/A% 29.97 in 5.0 mi ESE 5.8 mph - N/A   Haze
1:10 PM 68.0 °F - N/A% 29.97 in 5.0 mi ESE 8.1 mph - N/A   Haze
1:30 PM 68.0 °F - N/A% 29.97 in 4.0 mi ESE 5.8 mph - N/A   Haze
1:50 PM 66.2 °F - N/A% 29.98 in 2.0 mi ESE 4.6 mph - N/A   Overcast
2:10 PM 69.8 °F - N/A% 29.97 in 3.0 mi SE 5.8 mph - N/A   Mostly Cloudy
2:30 PM 71.6 °F - N/A% 29.97 in 7.0 mi SSE 4.6 mph - N/A   Scattered Clouds
2:50 PM 69.8 °F - N/A% 29.97 in 10.0 mi East 4.6 mph - N/A   Overcast
3:10 PM 69.8 °F - N/A% 29.97 in 7.0 mi Calm Calm - N/A   Overcast
3:30 PM 69.8 °F - N/A% 29.97 in 10.0 mi ESE 4.6 mph - N/A   Mostly Cloudy
3:50 PM 73.4 °F 69.8 °F 88% 29.96 in 10.0 mi ENE 3.5 mph - N/A   Scattered Clouds
4:10 PM 71.6 °F 69.8 °F 94% 29.96 in 10.0 mi Calm Calm - N/A   Scattered Clouds
4:30 PM 71.6 °F 68.0 °F 88% 29.95 in 10.0 mi Calm Calm - N/A   Mostly Cloudy
5:10 PM 73.4 °F 68.0 °F 83% 29.96 in 10.0 mi Calm Calm - N/A   Clear
5:30 PM 71.6 °F 64.4 °F 78% 29.96 in 10.0 mi Calm Calm - N/A   Scattered Clouds
5:50 PM 71.6 °F 69.8 °F 94% 29.97 in 10.0 mi Calm Calm - N/A   Clear
6:10 PM 71.6 °F 69.8 °F 94% 29.96 in 10.0 mi SSE 3.5 mph - N/A   Clear
6:30 PM 69.8 °F 69.8 °F 100% 29.97 in 10.0 mi SSE 6.9 mph - N/A   Mostly Cloudy
6:50 PM 69.8 °F 69.8 °F 100% 29.97 in 10.0 mi SSE 4.6 mph - N/A   Mostly Cloudy
7:10 PM 69.8 °F 69.8 °F 100% 29.97 in 10.0 mi SSE 6.9 mph - N/A   Mostly Cloudy
7:30 PM 68.0 °F 68.0 °F 100% 29.97 in 10.0 mi SE 5.8 mph - N/A   Scattered Clouds
7:50 PM 68.0 °F - N/A% 29.97 in 7.0 mi SSE 5.8 mph - N/A   Clear
8:10 PM 66.2 °F - N/A% 29.99 in 7.0 mi South 5.8 mph - N/A   Clear
8:30 PM 66.2 °F - N/A% 29.99 in 7.0 mi SE 5.8 mph - N/A   Clear
8:50 PM 64.4 °F - N/A% 29.99 in 7.0 mi SSE 4.6 mph - N/A   Clear
9:10 PM 64.4 °F - N/A% 29.99 in 7.0 mi SSE 5.8 mph - N/A   Clear
9:50 PM 64.4 °F - N/A% 29.99 in 5.0 mi SE 4.6 mph - N/A   Haze
10:30 PM 64.4 °F - N/A% 30.00 in 5.0 mi SSE 5.8 mph - N/A   Haze
10:50 PM 64.4 °F - N/A% 30.01 in 5.0 mi SSE 4.6 mph - N/A   Haze
11:10 PM 64.4 °F - N/A% 30.01 in 7.0 mi SSE 5.8 mph - N/A   Clear
11:30 PM 64.4 °F - N/A% 30.02 in 5.0 mi SSE 5.8 mph - N/A   Haze
11:50 PM 64.4 °F - N/A% 30.01 in 7.0 mi SSE 5.8 mph - N/A   Scattered Clouds